This is the latest recevied weather packets stored in our database for station/object DK8HC-WX. If no packets are shown the sender has not sent any weather packets the latest 10 day(s).
| Time | Temp. | Humidity | Pressure | Rain* | Wind** | Luminosity | Snow |
|---|---|---|---|---|---|---|---|
| 1777649496 | 25.56° C | 37% | 1027.6 hPa | - | - | - | - |
| 1777648896 | 26.11° C | 36% | 1027.7 hPa | - | - | - | - |
| 1777648296 | 26.67° C | 36% | 1028 hPa | - | - | - | - |
| 1777647696 | 26.67° C | 34% | 1028.1 hPa | - | - | - | - |
| 1777647096 | 27.78° C | 35% | 1028.4 hPa | - | - | - | - |
| 1777646497 | 28.89° C | 34% | 1028.5 hPa | - | - | - | - |
| 1777645896 | 27.22° C | 34% | 1028.4 hPa | - | - | - | - |
| 1777645296 | 28.89° C | 33% | 1028.8 hPa | - | - | - | - |
| 1777644697 | 28.33° C | 34% | 1028.8 hPa | - | - | - | - |
| 1777644098 | 29.44° C | 32% | 1028.8 hPa | - | - | - | - |
| 1777643496 | 27.22° C | 35% | 1029.1 hPa | - | - | - | - |
| 1777642896 | 26.67° C | 33% | 1028.9 hPa | - | - | - | - |
| 1777642296 | 28.89° C | 33% | 1029.4 hPa | - | - | - | - |
| 1777641695 | 28.89° C | 33% | 1029.4 hPa | - | - | - | - |
| 1777641096 | 27.78° C | 36% | 1029.7 hPa | - | - | - | - |
| 1777640496 | 26.67° C | 37% | 1029.7 hPa | - | - | - | - |
| 1777638695 | 23.33° C | 40% | 1029.9 hPa | - | - | - | - |
| 1777638095 | 23.33° C | 40% | 1030.1 hPa | - | - | - | - |
| 1777637495 | 22.78° C | 39% | 1029.9 hPa | - | - | - | - |
| 1777636895 | 25° C | 38% | 1030.2 hPa | - | - | - | - |
| 1777636295 | 24.44° C | 38% | 1030.2 hPa | - | - | - | - |
| 1777635695 | 25° C | 39% | 1030.5 hPa | - | - | - | - |
| 1777635095 | 23.33° C | 40% | 1030.4 hPa | - | - | - | - |
| 1777634495 | 22.78° C | 38% | 1030.3 hPa | - | - | - | - |
| 1777633895 | 25° C | 41% | 1031 hPa | - | - | - | - |
* Rain since midnight (hover to see other rain measurements)
** Current wind speed in m/s (hover to see current wind gust speed)